TimePDT,TemperatureF,Dew PointF,Humidity,Sea Level PressureIn,VisibilityMPH,Wind Direction,Wind SpeedMPH,Gust SpeedMPH,PrecipitationIn,Events,Conditions,WindDirDegrees,DateUTC
12:54 AM,54.0,46.9,77,30.04,10.0,Calm,Calm,-,N/A,,Clear,0,2013-07-28 07:54:00
1:54 AM,52.0,46.0,80,30.04,10.0,Calm,Calm,-,N/A,,Clear,0,2013-07-28 08:54:00
2:54 AM,50.0,45.0,83,30.05,10.0,NNW,3.5,-,N/A,,Clear,340,2013-07-28 09:54:00
3:54 AM,48.9,45.0,86,30.06,10.0,North,5.8,-,N/A,,Clear,350,2013-07-28 10:54:00
4:54 AM,48.0,44.1,86,30.06,10.0,NW,3.5,-,N/A,,Clear,320,2013-07-28 11:54:00
5:54 AM,46.9,46.0,97,30.06,10.0,Calm,Calm,-,N/A,,Partly Cloudy,0,2013-07-28 12:54:00
6:54 AM,50.0,46.9,89,30.07,10.0,Calm,Calm,-,N/A,,Clear,0,2013-07-28 13:54:00
7:54 AM,55.0,48.0,77,30.08,10.0,NNW,3.5,-,N/A,,Clear,340,2013-07-28 14:54:00
8:54 AM,60.1,48.9,67,30.06,10.0,NE,8.1,-,N/A,,Clear,40,2013-07-28 15:54:00
9:54 AM,64.0,48.0,56,30.06,10.0,NNW,8.1,-,N/A,,Clear,330,2013-07-28 16:54:00
10:54 AM,66.0,48.0,52,30.05,10.0,Variable,3.5,-,N/A,,Clear,0,2013-07-28 17:54:00
11:54 AM,71.1,46.0,41,30.04,10.0,North,10.4,-,N/A,,Clear,360,2013-07-28 18:54:00
12:54 PM,75.0,45.0,34,30.02,10.0,North,10.4,-,N/A,,Partly Cloudy,360,2013-07-28 19:54:00
1:54 PM,77.0,43.0,30,30.01,10.0,North,8.1,17.3,N/A,,Partly Cloudy,350,2013-07-28 20:54:00
2:54 PM,79.0,45.0,30,29.99,10.0,North,12.7,18.4,N/A,,Clear,360,2013-07-28 21:54:00
3:54 PM,81.0,46.9,30,29.97,10.0,North,12.7,19.6,N/A,,Clear,10,2013-07-28 22:54:00
4:54 PM,82.0,48.0,30,29.95,10.0,North,13.8,18.4,N/A,,Clear,350,2013-07-28 23:54:00
5:54 PM,81.0,48.0,31,29.94,10.0,NNE,9.2,19.6,N/A,,Clear,20,2013-07-29 00:54:00
6:54 PM,79.0,50.0,36,29.94,10.0,North,9.2,-,N/A,,Clear,360,2013-07-29 01:54:00
7:54 PM,75.0,53.1,46,29.94,10.0,North,11.5,-,N/A,,Clear,360,2013-07-29 02:54:00
8:54 PM,68.0,53.1,59,29.94,10.0,NNW,9.2,-,N/A,,Clear,340,2013-07-29 03:54:00
9:54 PM,64.0,53.1,67,29.96,10.0,NNE,3.5,-,N/A,,Clear,30,2013-07-29 04:54:00
10:54 PM,60.1,51.1,72,29.96,10.0,ENE,3.5,-,N/A,,Clear,70,2013-07-29 05:54:00
11:54 PM,55.9,48.9,77,29.97,10.0,NNE,6.9,-,N/A,,Clear,20,2013-07-29 06:54:00